User: anonymous   Login
Location: Narrabri
(30.3170°S, 149.7830°E)
Time: 02:10:04
(UTC+11:00)
Language:

N. Korean satellite - Orbit

View from above orbital plane
View from above orbital plane
View from above satellite
View from above satellite

Ground track
Ground track

The orbit data is extracted from the following two-line orbital elements,

1 39026U 12072A   17289.93780704 +.00002145 +00000-0 +84306-4 0  9994
2 39026 097.2199 303.6244 0041943 105.2124 255.3758 15.25922765268495
Epoch (UTC): 16 October 2017 22:30:26
Eccentricity: 0.0041943
inclination: 97.2199°
perigee height: 459 km
apogee height: 517 km
right ascension of ascending node: 303.6244°
argument of perigee: 105.2124°
revolutions per day: 15.25922765
mean anomaly at epoch: 255.3758°
orbit number at epoch: 26849

The dashed part of the orbit path shows where the satellite is in the earth's shadow,  

DLR